Find Local Weather

World > North America > United States > New York

Hancock, New York Regional Weather

Lat: 41.95N, Lon: 75.28W
Wx Zone: NYZ057
Feedback
Expires:201804210300;;260566
ASUS41 KALY 210210
RWRALY

NEW YORK STATE HOURLY WEATHER ROUNDUP
NATIONAL WEATHER SERVICE ALBANY NY
1000 PM EDT FRI APR 20 2018

NOTE: "FAIR" INDICATES FEW OR NO CLOUDS BELOW 12,000 FEET WITH NO
SIGNIFICANT WEATHER AND/OR NO OBSTRUCTIONS TO VISIBILITY.


NYZ032-033-038>043-046>054-057>066-NYZ062>081-082-084-210300-
EAST

  
CITY           SKY/WX    TMP DP  RH WIND       PRES   REMARKS
ALBANY         FAIR      37  24  59 W10       30.34F WCI  30          
GLENS FALLS    NOT AVBL                                               
POUGHKEEPSIE   FAIR      39  22  50 W3        30.34S                  
NEWBURGH       PTCLDY    37  25  60 VRB5      30.35S WCI  34          
MONTGOMERY     FAIR      36  22  56 CALM      30.34S                  
WHITE PLAINS   FAIR      39  22  50 N14       30.32R WCI  31          
ISLIP          FAIR      42  25  50 N13G23    30.32R                  
NEW YORK CITY  FAIR      44  24  45 N13       30.34R                  
CENTRAL PARK   FAIR      43  23  45 N9G18     30.37R                  
$$


SKY/WX - Weather  TMP - Temperature  DP - Dewpoint  RH - Relative Humidity
WIND - Wind Direction/Speed PRES - Barometric Pressure